Location: Castrojimeno
(41.3966°N, 3.8473°W)
Time: 07:16:53
(UTC+00:00)

Cosmos 292 Rocket - Pass Details

Date: 15 May 2026
Orbit: 662 x 681 km, 74.0° (Epoch: 6 June)

Event Time Altitude Azimuth Distance (km) Brightness Sun altitude
Rises 19:50:54 0° 336° (NNW) 3,035 8.1 -4.7°
Reaches altitude 10° 19:53:14 10° 333° (NNW) 2,113 7.3 -5.1°
Maximum altitude 19:57:53 59° 255° (WSW) 779 4.4 -5.8°
Drops below altitude 10° 20:02:30 10° 176° (S) 2,086 5.9 -6.5°
Sets 20:04:48 0° 172° (S) 2,991 6.7 -6.9°
